#Datum;Uhrzeit;WR;Pac;DaySum;Status;WR;Pac;DaySum;Status;Pdc1;Udc;Temp;WR;Pac;DaySum;Status;Pdc1;Udc;Temp;WR;Pac;DaySum;Status;Pdc1;Udc;Temp;WR;Pac;DaySum;Status;Pdc1;Pdc2;Udc1;Udc2;Temp;WR;Pac;DaySum;Status;Pdc1;Pdc2;Udc1;Udc2;Temp;WR;Pac;DaySum;Status;Pdc1;Udc;Temp;WR;Pac;DaySum;Status;Pdc1;Udc;Temp;WR;Pac;DaySum;Status;Pdc1;Udc;Temp
31.01.18;23:55:00;1;324;13021;0;2;0;16170;0;0;0;0;3;0;10560;0;0;0;0;4;0;13242;0;0;0;0;5;0;35910;0;0;0;0;0;0;6;0;27226;0;0;0;0;0;0;7;0;25353;0;0;0;0;8;0;24885;0;0;0;0;9;0;13553;0;0;0;0
31.01.18;23:50:00;1;326;12994;0;2;0;16170;0;0;0;0;3;0;10560;0;0;0;0;4;0;13242;0;0;0;0;5;0;35910;0;0;0;0;0;0;6;0;27226;0;0;0;0;0;0;7;0;25353;0;0;0;0;8;0;24885;0;0;0;0;9;0;13553;0;0;0;0
31.01.18;23:45:00;1;282;12967;0;2;0;16170;0;0;0;0;3;0;10560;0;0;0;0;4;0;13242;0;0;0;0;5;0;35910;0;0;0;0;0;0;6;0;27226;0;0;0;0;0;0;7;0;25353;0;0;0;0;8;0;24885;0;0;0;0;9;0;13553;0;0;0;0
31.01.18;23:40:00;1;311;12943;0;2;0;16170;0;0;0;0;3;0;10560;0;0;0;0;4;0;13242;0;0;0;0;5;0;35910;0;0;0;0;0;0;6;0;27226;0;0;0;0;0;0;7;0;25353;0;0;0;0;8;0;24885;0;0;0;0;9;0;13553;0;0;0;0
31.01.18;23:35:00;1;356;12915;0;2;0;16170;0;0;0;0;3;0;10560;0;0;0;0;4;0;13242;0;0;0;0;5;0;35910;0;0;0;0;0;0;6;0;27226;0;0;0;0;0;0;7;0;25353;0;0;0;0;8;0;24885;0;0;0;0;9;0;13553;0;0;0;0
31.01.18;23:30:00;1;282;12886;0;2;0;16170;0;0;0;0;3;0;10560;0;0;0;0;4;0;13242;0;0;0;0;5;0;35910;0;0;0;0;0;0;6;0;27226;0;0;0;0;0;0;7;0;25353;0;0;0;0;8;0;24885;0;0;0;0;9;0;13553;0;0;0;0
31.01.18;23:25:00;1;309;12863;0;2;0;16170;0;0;0;0;3;0;10560;0;0;0;0;4;0;13242;0;0;0;0;5;0;35910;0;0;0;0;0;0;6;0;27226;0;0;0;0;0;0;7;0;25353;0;0;0;0;8;0;24885;0;0;0;0;9;0;13553;0;0;0;0
31.01.18;23:20:00;1;605;12837;0;2;0;16170;0;0;0;0;3;0;10560;0;0;0;0;4;0;13242;0;0;0;0;5;0;35910;0;0;0;0;0;0;6;0;27226;0;0;0;0;0;0;7;0;25353;0;0;0;0;8;0;24885;0;0;0;0;9;0;13553;0;0;0;0
31.01.18;23:15:00;1;391;12775;0;2;0;16170;0;0;0;0;3;0;10560;0;0;0;0;4;0;13242;0;0;0;0;5;0;35910;0;0;0;0;0;0;6;0;27226;0;0;0;0;0;0;7;0;25353;0;0;0;0;8;0;24885;0;0;0;0;9;0;13553;0;0;0;0
31.01.18;23:10:00;1;501;12742;0;2;0;16170;0;0;0;0;3;0;10560;0;0;0;0;4;0;13242;0;0;0;0;5;0;35910;0;0;0;0;0;0;6;0;27226;0;0;0;0;0;0;7;0;25353;0;0;0;0;8;0;24885;0;0;0;0;9;0;13553;0;0;0;0
31.01.18;23:05:00;1;445;12702;0;2;0;16170;0;0;0;0;3;0;10560;0;0;0;0;4;0;13242;0;0;0;0;5;0;35910;0;0;0;0;0;0;6;0;27226;0;0;0;0;0;0;7;0;25353;0;0;0;0;8;0;24885;0;0;0;0;9;0;13553;0;0;0;0
31.01.18;23:00:00;1;448;12665;0;2;0;16170;0;0;0;0;3;0;10560;0;0;0;0;4;0;13242;0;0;0;0;5;0;35910;0;0;0;0;0;0;6;0;27226;0;0;0;0;0;0;7;0;25353;0;0;0;0;8;0;24885;0;0;0;0;9;0;13553;0;0;0;0
31.01.18;22:55:00;1;547;12625;0;2;0;16170;0;0;0;0;3;0;10560;0;0;0;0;4;0;13242;0;0;0;0;5;0;35910;2;0;0;0;0;0;6;0;27226;2;0;0;0;0;0;7;0;25353;0;0;0;0;8;0;24885;0;0;0;0;9;0;13553;0;0;0;0
31.01.18;22:50:00;1;600;12579;0;2;0;16170;0;0;0;0;3;0;10560;0;0;0;0;4;0;13242;0;0;0;0;5;0;35910;2;0;0;0;0;0;6;0;27226;2;0;0;0;0;0;7;0;25353;0;0;0;0;8;0;24885;0;0;0;0;9;0;13553;0;0;0;0
31.01.18;22:45:00;1;573;12529;0;2;0;16170;0;0;0;0;3;0;10560;0;0;0;0;4;0;13242;0;0;0;0;5;0;35910;2;0;0;0;0;0;6;0;27226;2;0;0;0;0;0;7;0;25353;0;0;0;0;8;0;24885;0;0;0;0;9;0;13553;0;0;0;0
31.01.18;22:40:00;1;494;12484;0;2;0;16170;0;0;0;0;3;0;10560;0;0;0;0;4;0;13242;0;0;0;0;5;0;35910;2;0;0;0;0;0;6;0;27226;2;0;0;0;0;0;7;0;25353;0;0;0;0;8;0;24885;0;0;0;0;9;0;13553;0;0;0;0
31.01.18;22:35:00;1;567;12440;0;2;0;16170;0;0;0;0;3;0;10560;0;0;0;0;4;0;13242;0;0;0;0;5;0;35910;2;0;0;0;0;0;6;0;27226;2;0;0;0;0;0;7;0;25353;0;0;0;0;8;0;24885;0;0;0;0;9;0;13553;0;0;0;0
31.01.18;22:30:00;1;573;12393;0;2;0;16170;0;0;0;0;3;0;10560;0;0;0;0;4;0;13242;0;0;0;0;5;0;35910;2;0;0;0;0;0;6;0;27226;2;0;0;0;0;0;7;0;25353;0;0;0;0;8;0;24885;0;0;0;0;9;0;13553;0;0;0;0
31.01.18;22:25:00;1;532;12346;0;2;0;16170;0;0;0;0;3;0;10560;0;0;0;0;4;0;13242;0;0;0;0;5;0;35910;2;0;0;0;0;0;6;0;27226;2;0;0;0;0;0;7;0;25353;0;0;0;0;8;0;24885;0;0;0;0;9;0;13553;0;0;0;0
31.01.18;22:20:00;1;445;12301;0;2;0;16170;0;0;0;0;3;0;10560;0;0;0;0;4;0;13242;0;0;0;0;5;0;35910;2;0;0;0;0;0;6;0;27226;2;0;0;0;0;0;7;0;25353;0;0;0;0;8;0;24885;0;0;0;0;9;0;13553;0;0;0;0
31.01.18;22:15:00;1;569;12263;0;2;0;16170;0;0;0;0;3;0;10560;0;0;0;0;4;0;13242;0;0;0;0;5;0;35910;2;0;0;0;0;0;6;0;27226;2;0;0;0;0;0;7;0;25353;0;0;0;0;8;0;24885;0;0;0;0;9;0;13553;0;0;0;0
31.01.18;22:10:00;1;589;12215;0;2;0;16170;0;0;0;0;3;0;10560;0;0;0;0;4;0;13242;0;0;0;0;5;0;35910;2;0;0;0;0;0;6;0;27226;2;0;0;0;0;0;7;0;25353;0;0;0;0;8;0;24885;0;0;0;0;9;0;13553;0;0;0;0
31.01.18;22:05:00;1;604;12165;0;2;0;16170;0;0;0;0;3;0;10560;0;0;0;0;4;0;13242;0;0;0;0;5;0;35910;2;0;0;0;0;0;6;0;27226;2;0;0;0;0;0;7;0;25353;0;0;0;0;8;0;24885;0;0;0;0;9;0;13553;0;0;0;0
31.01.18;22:00:00;1;623;12115;0;2;0;16170;0;0;0;0;3;0;10560;0;0;0;0;4;0;13242;0;0;0;0;5;0;35910;2;0;0;0;0;0;6;0;27226;2;0;0;0;0;0;7;0;25353;0;0;0;0;8;0;24885;0;0;0;0;9;0;13553;0;0;0;0
31.01.18;21:55:00;1;562;12066;0;2;0;16170;0;0;0;0;3;0;10560;0;0;0;0;4;0;13242;0;0;0;0;5;0;35910;2;0;0;0;0;0;6;0;27226;2;0;0;0;0;0;7;0;25353;0;0;0;0;8;0;24885;0;0;0;0;9;0;13553;0;0;0;0
31.01.18;21:50:00;1;618;12019;0;2;0;16170;0;0;0;0;3;0;10560;0;0;0;0;4;0;13242;0;0;0;0;5;0;35910;2;0;0;0;0;0;6;0;27226;2;0;0;0;0;0;7;0;25353;0;0;0;0;8;0;24885;0;0;0;0;9;0;13553;0;0;0;0
31.01.18;21:45:00;1;627;11968;0;2;0;16170;0;0;0;0;3;0;10560;0;0;0;0;4;0;13242;0;0;0;0;5;0;35910;2;0;0;0;0;0;6;0;27226;2;0;0;0;0;0;7;0;25353;0;0;0;0;8;0;24885;0;0;0;0;9;0;13553;0;0;0;0
31.01.18;21:40:00;1;628;11915;0;2;0;16170;0;0;0;0;3;0;10560;0;0;0;0;4;0;13242;0;0;0;0;5;0;35910;2;0;0;0;0;0;6;0;27226;2;0;0;0;0;0;7;0;25353;0;0;0;0;8;0;24885;0;0;0;0;9;0;13553;0;0;0;0
31.01.18;21:35:00;1;626;11863;0;2;0;16170;0;0;0;0;3;0;10560;0;0;0;0;4;0;13242;0;0;0;0;5;0;35910;2;0;0;0;0;0;6;0;27226;2;0;0;0;0;0;7;0;25353;0;0;0;0;8;0;24885;0;0;0;0;9;0;13553;0;0;0;0
31.01.18;21:30:00;1;629;11811;0;2;0;16170;0;0;0;0;3;0;10560;0;0;0;0;4;0;13242;0;0;0;0;5;0;35910;2;0;0;0;0;0;6;0;27226;2;0;0;0;0;0;7;0;25353;0;0;0;0;8;0;24885;0;0;0;0;9;0;13553;0;0;0;0
31.01.18;21:25:00;1;1187;11758;0;2;0;16170;0;0;0;0;3;0;10560;0;0;0;0;4;0;13242;0;0;0;0;5;0;35910;2;0;0;0;0;0;6;0;27226;2;0;0;0;0;0;7;0;25353;0;0;0;0;8;0;24885;0;0;0;0;9;0;13553;0;0;0;0
31.01.18;21:20:00;1;906;11652;0;2;0;16170;0;0;0;0;3;0;10560;0;0;0;0;4;0;13242;0;0;0;0;5;0;35910;2;0;0;0;0;0;6;0;27226;2;0;0;0;0;0;7;0;25353;0;0;0;0;8;0;24885;0;0;0;0;9;0;13553;0;0;0;0
31.01.18;21:15:00;1;914;11582;0;2;0;16170;0;0;0;0;3;0;10560;0;0;0;0;4;0;13242;0;0;0;0;5;0;35910;2;0;0;0;0;0;6;0;27226;2;0;0;0;0;0;7;0;25353;0;0;0;0;8;0;24885;0;0;0;0;9;0;13553;0;0;0;0
31.01.18;21:10:00;1;905;11506;0;2;0;16170;0;0;0;0;3;0;10560;0;0;0;0;4;0;13242;0;0;0;0;5;0;35910;2;0;0;0;0;0;6;0;27226;2;0;0;0;0;0;7;0;25353;0;0;0;0;8;0;24885;0;0;0;0;9;0;13553;0;0;0;0
31.01.18;21:05:00;1;922;11430;0;2;0;16170;0;0;0;0;3;0;10560;0;0;0;0;4;0;13242;0;0;0;0;5;0;35910;2;0;0;0;0;0;6;0;27226;2;0;0;0;0;0;7;0;25353;0;0;0;0;8;0;24885;0;0;0;0;9;0;13553;0;0;0;0
31.01.18;21:00:00;1;1530;11350;0;2;0;16170;0;0;0;0;3;0;10560;0;0;0;0;4;0;13242;0;0;0;0;5;0;35910;2;0;0;0;0;0;6;0;27226;2;0;0;0;0;0;7;0;25353;0;0;0;0;8;0;24885;0;0;0;0;9;0;13553;0;0;0;0
31.01.18;20:55:00;1;871;11247;0;2;0;16170;0;0;0;0;3;0;10560;0;0;0;0;4;0;13242;0;0;0;0;5;0;35910;2;0;0;0;0;0;6;0;27226;2;0;0;0;0;0;7;0;25353;0;0;0;0;8;0;24885;0;0;0;0;9;0;13553;0;0;0;0
31.01.18;20:50:00;1;869;11174;0;2;0;16170;0;0;0;0;3;0;10560;0;0;0;0;4;0;13242;0;0;0;0;5;0;35910;2;0;0;0;0;0;6;0;27226;2;0;0;0;0;0;7;0;25353;0;0;0;0;8;0;24885;0;0;0;0;9;0;13553;0;0;0;0
31.01.18;20:45:00;1;826;11101;0;2;0;16170;0;0;0;0;3;0;10560;0;0;0;0;4;0;13242;0;0;0;0;5;0;35910;2;0;0;0;0;0;6;0;27226;2;0;0;0;0;0;7;0;25353;0;0;0;0;8;0;24885;0;0;0;0;9;0;13553;0;0;0;0
31.01.18;20:40:00;1;716;11034;0;2;0;16170;0;0;0;0;3;0;10560;0;0;0;0;4;0;13242;0;0;0;0;5;0;35910;2;0;0;0;0;0;6;0;27226;2;0;0;0;0;0;7;0;25353;0;0;0;0;8;0;24885;0;0;0;0;9;0;13553;0;0;0;0
31.01.18;20:35:00;1;755;10974;0;2;0;16170;0;0;0;0;3;0;10560;0;0;0;0;4;0;13242;0;0;0;0;5;0;35910;2;0;0;0;0;0;6;0;27226;2;0;0;0;0;0;7;0;25353;0;0;0;0;8;0;24885;0;0;0;0;9;0;13553;0;0;0;0
31.01.18;20:30:00;1;788;10910;0;2;0;16170;0;0;0;0;3;0;10560;0;0;0;0;4;0;13242;0;0;0;0;5;0;35910;2;0;0;0;0;0;6;0;27226;2;0;0;0;0;0;7;0;25353;0;0;0;0;8;0;24885;0;0;0;0;9;0;13553;0;0;0;0
31.01.18;20:25:00;1;811;10844;0;2;0;16170;0;0;0;0;3;0;10560;0;0;0;0;4;0;13242;0;0;0;0;5;0;35910;2;0;0;0;0;0;6;0;27226;2;0;0;0;0;0;7;0;25353;0;0;0;0;8;0;24885;0;0;0;0;9;0;13553;0;0;0;0
31.01.18;20:20:00;1;811;10776;0;2;0;16170;0;0;0;0;3;0;10560;0;0;0;0;4;0;13242;0;0;0;0;5;0;35910;2;0;0;0;0;0;6;0;27226;2;0;0;0;0;0;7;0;25353;0;0;0;0;8;0;24885;0;0;0;0;9;0;13553;0;0;0;0
31.01.18;20:15:00;1;777;10709;0;2;0;16170;0;0;0;0;3;0;10560;0;0;0;0;4;0;13242;0;0;0;0;5;0;35910;2;0;0;0;0;0;6;0;27226;2;0;0;0;0;0;7;0;25353;0;0;0;0;8;0;24885;0;0;0;0;9;0;13553;0;0;0;0
31.01.18;20:10:00;1;982;10626;0;2;0;16170;0;0;0;0;3;0;10560;0;0;0;0;4;0;13242;0;0;0;0;5;0;35910;2;0;0;0;0;0;6;0;27226;2;0;0;0;0;0;7;0;25353;0;0;0;0;8;0;24885;0;0;0;0;9;0;13553;0;0;0;0
31.01.18;20:05:00;1;835;10549;0;2;0;16170;0;0;0;0;3;0;10560;0;0;0;0;4;0;13242;0;0;0;0;5;0;35910;2;0;0;0;0;0;6;0;27226;2;0;0;0;0;0;7;0;25353;0;0;0;0;8;0;24885;0;0;0;0;9;0;13553;0;0;0;0
31.01.18;20:00:00;1;834;10480;0;2;0;16170;0;0;0;0;3;0;10560;0;0;0;0;4;0;13242;0;0;0;0;5;0;35910;2;0;0;0;0;0;6;0;27226;2;0;0;0;0;0;7;0;25353;0;0;0;0;8;0;24885;0;0;0;0;9;0;13553;0;0;0;0
31.01.18;19:55:00;1;833;10410;0;2;0;16170;0;0;0;0;3;0;10560;0;0;0;0;4;0;13242;0;0;0;0;5;0;35910;2;0;0;0;0;0;6;0;27226;2;0;0;0;0;0;7;0;25353;0;0;0;0;8;0;24885;0;0;0;0;9;0;13553;0;0;0;0
31.01.18;19:50:00;1;1242;10341;0;2;0;16170;0;0;0;0;3;0;10560;0;0;0;0;4;0;13242;0;0;0;0;5;0;35910;2;0;0;0;0;0;6;0;27226;2;0;0;0;0;0;7;0;25353;0;0;0;0;8;0;24885;0;0;0;0;9;0;13553;0;0;0;0
31.01.18;19:45:00;1;2546;10243;0;2;0;16170;0;0;0;0;3;0;10560;0;0;0;0;4;0;13242;0;0;0;0;5;0;35910;2;0;0;0;0;0;6;0;27226;2;0;0;0;0;0;7;0;25353;0;0;0;0;8;0;24885;0;0;0;0;9;0;13553;0;0;0;0
31.01.18;19:40:00;1;838;9997;0;2;0;16170;0;0;0;0;3;0;10560;0;0;0;0;4;0;13242;0;0;0;0;5;0;35910;2;0;0;0;0;0;6;0;27226;2;0;0;0;0;0;7;0;25353;0;0;0;0;8;0;24885;0;0;0;0;9;0;13553;0;0;0;0
31.01.18;19:35:00;1;837;9926;0;2;0;16170;0;0;0;0;3;0;10560;0;0;0;0;4;0;13242;0;0;0;0;5;0;35910;2;0;0;0;0;0;6;0;27226;2;0;0;0;0;0;7;0;25353;0;0;0;0;8;0;24885;0;0;0;0;9;0;13553;0;0;0;0
31.01.18;19:30:00;1;1211;9857;0;2;0;16170;0;0;0;0;3;0;10560;0;0;0;0;4;0;13242;0;0;0;0;5;0;35910;2;0;0;0;0;0;6;0;27226;2;0;0;0;0;0;7;0;25353;0;0;0;0;8;0;24885;0;0;0;0;9;0;13553;0;0;0;0
31.01.18;19:25:00;1;943;9761;0;2;0;16170;0;0;0;0;3;0;10560;0;0;0;0;4;0;13242;0;0;0;0;5;0;35910;2;0;0;0;0;0;6;0;27226;2;0;0;0;0;0;7;0;25353;0;0;0;0;8;0;24885;0;0;0;0;9;0;13553;0;0;0;0
31.01.18;19:20:00;1;766;9694;0;2;0;16170;0;0;0;0;3;0;10560;0;0;0;0;4;0;13242;0;0;0;0;5;0;35910;2;0;0;0;0;0;6;0;27226;2;0;0;0;0;0;7;0;25353;0;0;0;0;8;0;24885;0;0;0;0;9;0;13553;0;0;0;0
31.01.18;19:15:00;1;767;9630;0;2;0;16170;0;0;0;0;3;0;10560;0;0;0;0;4;0;13242;0;0;0;0;5;0;35910;2;0;0;0;0;0;6;0;27226;2;0;0;0;0;0;7;0;25353;0;0;0;0;8;0;24885;0;0;0;0;9;0;13553;0;0;0;0
31.01.18;19:10:00;1;1009;9566;0;2;0;16170;0;0;0;0;3;0;10560;0;0;0;0;4;0;13242;0;0;0;0;5;0;35910;2;0;0;0;0;0;6;0;27226;2;0;0;0;0;0;7;0;25353;0;0;0;0;8;0;24885;0;0;0;0;9;0;13553;0;0;0;0
31.01.18;19:05:00;1;878;9470;0;2;0;16170;0;0;0;0;3;0;10560;0;0;0;0;4;0;13242;0;0;0;0;5;0;35910;2;0;0;0;0;0;6;0;27226;2;0;0;0;0;0;7;0;25353;0;0;0;0;8;0;24885;0;0;0;0;9;0;13553;0;0;0;0
31.01.18;19:00:00;1;881;9396;0;2;0;16170;0;0;0;0;3;0;10560;0;0;0;0;4;0;13242;0;0;0;0;5;0;35910;2;0;0;0;0;0;6;0;27226;2;0;0;0;0;0;7;0;25353;0;0;0;0;8;0;24885;0;0;0;0;9;0;13553;0;0;0;0
31.01.18;18:55:00;1;832;9322;0;2;0;16170;0;0;0;0;3;0;10560;0;0;0;0;4;0;13242;0;0;0;0;5;0;35910;2;0;0;0;0;0;6;0;27226;2;0;0;0;0;0;7;0;25353;0;0;0;0;8;0;24885;0;0;0;0;9;0;13553;0;0;0;0
31.01.18;18:50:00;1;968;9253;0;2;0;16170;0;0;0;0;3;0;10560;0;0;0;0;4;0;13242;0;0;0;0;5;0;35910;2;0;0;0;0;0;6;0;27226;2;0;0;0;0;0;7;0;25353;0;0;0;0;8;0;24885;0;0;0;0;9;0;13553;0;0;0;0
31.01.18;18:45:00;1;779;9155;0;2;0;16170;0;0;0;0;3;0;10560;0;0;0;0;4;0;13242;0;0;0;0;5;0;35910;2;0;0;0;0;0;6;0;27226;2;0;0;0;0;0;7;0;25353;0;0;0;0;8;0;24885;0;0;0;0;9;0;13553;0;0;0;0
31.01.18;18:40:00;1;822;9090;0;2;0;16170;0;0;0;0;3;0;10560;0;0;0;0;4;0;13242;0;0;0;0;5;0;35910;2;0;0;0;0;0;6;0;27226;2;0;0;0;0;0;7;0;25353;0;0;0;0;8;0;24885;0;0;0;0;9;0;13553;0;0;0;0
31.01.18;18:35:00;1;798;9003;0;2;0;16170;0;0;0;0;3;0;10560;0;0;0;0;4;0;13242;0;0;0;0;5;0;35910;2;0;0;0;0;0;6;0;27226;2;0;0;0;0;0;7;0;25353;0;0;0;0;8;0;24885;0;0;0;0;9;0;13553;0;0;0;0
31.01.18;18:30:00;1;1042;8936;0;2;0;16170;0;0;0;0;3;0;10560;0;0;0;0;4;0;13242;0;0;0;0;5;0;35910;2;0;0;0;0;0;6;0;27226;2;0;0;0;0;0;7;0;25353;0;0;0;0;8;0;24885;0;0;0;0;9;0;13553;0;0;0;0
31.01.18;18:25:00;1;799;8839;0;2;0;16170;0;0;0;0;3;0;10560;0;0;0;0;4;0;13242;0;0;0;0;5;0;35910;2;0;0;0;0;0;6;0;27226;2;0;0;0;0;0;7;0;25353;0;0;0;0;8;0;24885;0;0;0;0;9;0;13553;0;0;0;0
31.01.18;18:20:00;1;820;8773;0;2;0;16170;0;0;0;0;3;0;10560;0;0;0;0;4;0;13242;0;0;0;0;5;0;35910;2;0;0;0;0;0;6;0;27226;2;0;0;0;0;0;7;0;25353;0;0;0;0;8;0;24885;0;0;0;0;9;0;13553;0;0;0;0
31.01.18;18:15:00;1;831;8706;0;2;0;16170;0;0;0;0;3;0;10560;0;0;0;0;4;0;13242;0;0;0;0;5;0;35910;2;0;0;0;0;0;6;0;27226;2;0;0;0;0;0;7;0;25353;0;0;0;0;8;0;24885;0;0;0;0;9;0;13553;0;0;0;0
31.01.18;18:10:00;1;827;8638;0;2;0;16170;0;0;0;0;3;0;10560;0;0;0;0;4;0;13242;0;0;0;0;5;0;35910;2;0;0;0;0;0;6;0;27226;2;0;0;0;0;0;7;0;25353;0;0;0;0;8;0;24885;0;0;0;0;9;0;13553;0;0;0;0
31.01.18;18:05:00;1;982;8567;0;2;0;16170;0;0;0;0;3;0;10560;0;0;0;0;4;0;13242;0;0;0;0;5;0;35910;2;0;0;0;0;0;6;0;27226;2;0;0;0;0;0;7;0;25353;0;0;0;0;8;0;24885;0;0;0;0;9;0;13553;0;0;0;0
31.01.18;18:00:00;1;791;8471;0;2;0;16170;0;0;0;0;3;0;10560;0;0;0;0;4;0;13242;0;0;0;0;5;0;35910;2;0;0;0;0;0;6;0;27226;2;0;0;0;0;0;7;0;25353;0;0;0;0;8;0;24885;0;0;0;0;9;0;13553;0;0;0;0
31.01.18;17:55:00;1;853;8404;0;2;0;16170;0;0;0;0;3;0;10560;0;0;0;0;4;0;13242;0;0;0;0;5;0;35910;2;0;0;0;0;0;6;0;27226;2;0;0;0;0;0;7;0;25353;0;0;0;0;8;0;24885;0;0;0;0;9;0;13553;0;0;0;0
31.01.18;17:50:00;1;772;8334;0;2;0;16170;0;0;0;0;3;0;10560;0;0;0;0;4;0;13242;0;0;0;0;5;0;35910;2;0;0;0;0;0;6;0;27226;2;0;0;0;0;0;7;0;25353;0;0;0;0;8;0;24885;0;0;0;0;9;0;13553;0;0;0;0
31.01.18;17:45:00;1;957;8271;0;2;0;16170;0;0;0;0;3;0;10560;0;0;0;0;4;0;13242;0;0;0;0;5;0;35910;2;0;0;0;0;0;6;0;27226;2;0;0;0;0;0;7;0;25353;0;0;0;0;8;0;24885;0;0;0;0;9;0;13553;0;0;0;0
31.01.18;17:40:00;1;783;8178;0;2;0;16170;0;0;0;0;3;0;10560;0;0;0;0;4;0;13242;0;0;0;0;5;0;35910;2;0;0;0;0;0;6;0;27226;2;0;0;0;0;0;7;0;25353;0;0;0;0;8;0;24885;0;0;0;0;9;0;13553;0;0;0;0
31.01.18;17:35:00;1;756;8113;0;2;0;16170;0;0;0;0;3;0;10560;0;0;0;0;4;0;13242;0;0;0;0;5;0;35910;2;0;0;0;0;0;6;0;27226;2;0;0;0;0;0;7;0;25353;0;0;0;0;8;0;24885;0;0;0;0;9;0;13553;0;0;0;0
31.01.18;17:30:00;1;783;8049;0;2;0;16170;0;0;0;0;3;0;10560;0;0;36;2;4;0;13242;0;0;0;0;5;0;35910;2;0;0;0;0;0;6;0;27226;2;0;0;0;0;0;7;0;25353;0;0;0;0;8;0;24885;0;0;0;0;9;0;13553;0;0;0;0
31.01.18;17:25:00;1;1770;7972;0;2;0;16170;0;0;232;14;3;0;10560;6;0;299;19;4;0;13242;0;0;26;7;5;0;35910;2;0;0;0;0;0;6;0;27226;2;0;0;0;0;0;7;0;25353;0;0;0;0;8;0;24885;0;0;0;0;9;0;13553;0;0;0;0
31.01.18;17:20:00;1;2034;7839;0;2;0;16170;6;0;319;18;3;0;10560;6;0;383;19;4;0;13242;2;0;94;17;5;0;35910;2;0;0;113;112;10;6;0;27226;2;3;0;129;71;10;7;0;25353;0;0;49;4;8;0;24885;0;0;49;4;9;0;13553;0;0;52;3
31.01.18;17:15:00;1;1479;7693;0;2;0;16170;6;0;355;18;3;0;10560;6;1;427;20;4;0;13242;1;0;143;17;5;0;35910;26;0;0;378;417;27;6;0;27226;23;1;10;506;180;25;7;0;25353;6;0;303;20;8;0;24885;6;0;302;20;9;0;13553;6;0;313;16
31.01.18;17:10:00;1;616;7580;0;2;0;16170;6;0;378;18;3;0;10560;6;2;454;20;4;0;13242;1;0;186;18;5;0;35910;23;0;0;405;545;27;6;0;27226;23;2;6;406;330;26;7;0;25353;6;0;372;21;8;0;24885;6;0;373;20;9;0;13553;6;1;369;16
31.01.18;17:05:00;1;836;7517;0;2;0;16170;6;0;397;19;3;1;10560;6;4;470;20;4;0;13242;3;0;208;18;5;10;35910;1;0;1;412;658;28;6;0;27226;23;6;1;383;572;26;7;0;25353;6;1;429;21;8;0;24885;6;1;430;21;9;0;13553;6;1;466;16
31.01.18;17:00:00;1;1905;7449;0;2;0;16170;6;0;408;19;3;2;10560;3;12;466;20;4;0;13242;3;0;219;18;5;60;35909;1;4;7;387;617;29;6;40;27226;1;13;20;485;459;27;7;0;25353;6;0;466;22;8;1;24885;6;3;446;21;9;2;13553;6;3;472;17
31.01.18;16:55:00;1;2992;7278;0;2;27;16170;6;47;375;20;3;3;10560;6;8;512;20;4;5;13242;3;5;199;19;5;113;35903;4;29;29;378;603;29;6;71;27222;4;32;38;461;432;28;7;6;25353;3;16;450;22;8;0;24884;6;0;484;22;9;1;13553;6;4;514;17
31.01.18;16:50:00;1;2831;7036;0;2;39;16168;4;73;356;20;3;2;10560;6;9;492;21;4;2;13242;3;2;199;19;5;123;35893;4;37;38;378;603;29;6;79;27215;4;30;36;461;432;28;7;4;25353;6;8;470;23;8;9;24884;3;20;442;22;9;0;13552;6;0;545;18
31.01.18;16:45:00;1;2693;6762;0;2;46;16165;4;80;356;20;3;3;10560;6;8;518;21;4;9;13242;3;9;198;19;5;145;35883;4;47;47;378;603;29;6;99;27209;4;51;59;461;432;28;7;19;25352;6;35;430;23;8;12;24883;6;23;451;23;9;3;13552;3;12;503;18
31.01.18;16:40:00;1;2282;6563;0;2;77;16161;4;110;358;21;3;7;10559;6;14;524;21;4;28;13241;3;29;197;20;5;206;35870;4;86;72;378;603;29;6;134;27200;4;54;59;461;432;28;7;51;25351;4;94;449;24;8;66;24882;4;95;380;23;9;14;13552;6;26;501;19
31.01.18;16:35:00;1;2303;6373;0;2;86;16154;4;120;366;21;3;8;10559;6;13;531;21;4;34;13239;3;35;197;20;5;212;35853;4;89;77;378;603;30;6;143;27189;4;54;59;461;432;28;7;67;25347;4;105;462;24;8;83;24877;4;117;422;24;9;7;13551;6;11;545;19
31.01.18;16:30:00;1;1385;6180;0;2;76;16147;4;109;365;21;3;15;10558;3;26;482;22;4;29;13236;3;31;197;20;5;200;35835;4;82;69;378;603;30;6;135;27177;4;66;79;460;432;28;7;60;25341;4;97;422;25;8;63;24870;4;95;391;24;9;6;13550;6;10;535;20
31.01.18;16:25:00;1;250;6093;0;2;119;16141;4;155;361;22;3;67;10557;4;104;445;22;4;68;13234;3;71;198;21;5;291;35818;4;130;112;378;603;30;6;189;27166;4;112;119;461;432;28;7;113;25336;4;151;402;25;8;119;24865;4;150;413;25;9;47;13550;6;73;448;21
31.01.18;16:20:00;1;249;6072;0;2;227;16131;4;267;376;23;3;133;10551;4;176;480;23;4;167;13228;5;174;224;21;5;457;35793;4;215;186;393;607;30;6;322;27149;4;170;181;517;507;28;7;225;25327;4;271;446;26;8;218;24855;4;259;451;25;9;103;13546;4;138;495;21
31.01.18;16:15:00;1;271;6051;0;2;564;16113;4;618;389;24;3;297;10540;4;342;463;24;4;361;13214;5;376;239;21;5;827;35753;4;412;347;406;641;31;6;628;27121;4;329;342;574;553;29;7;684;25309;4;728;463;26;8;558;24837;4;601;457;26;9;201;13538;4;240;523;22
31.01.18;16:10:00;1;463;6030;0;2;638;16067;4;696;389;25;3;347;10516;4;392;472;24;4;418;13185;5;436;234;22;5;969;35682;4;481;404;414;637;31;6;717;27068;4;363;372;578;552;29;7;750;25253;4;812;475;27;8;645;24792;4;696;467;26;9;247;13521;4;287;530;23
31.01.18;16:05:00;1;192;5987;0;2;1258;16009;4;1342;384;27;3;685;10486;4;743;436;25;4;719;13149;5;748;248;22;5;1784;35599;4;919;766;429;684;31;6;1316;27005;4;670;664;596;569;29;7;1530;25189;4;1621;487;27;8;1322;24737;4;1400;447;27;9;424;13501;4;475;562;24
31.01.18;16:00:00;1;228;5971;0;2;1827;15908;4;1923;397;27;3;903;10431;4;974;499;25;4;870;13091;5;905;254;22;5;2427;35441;4;1279;1056;435;695;31;6;1843;26888;4;954;932;604;575;29;7;2568;25066;4;2695;484;28;8;2312;24631;4;2422;459;27;9;506;13466;4;556;570;24
31.01.18;15:55:00;1;228;5952;0;2;841;15756;4;905;406;27;3;488;10353;4;542;508;25;4;558;13018;5;582;247;22;5;1281;35252;4;660;542;421;668;32;6;994;26742;4;476;492;588;564;29;7;1103;24857;4;1172;471;28;8;1003;24443;4;1062;462;28;9;375;13424;4;424;507;24
31.01.18;15:50:00;1;778;5933;0;2;863;15686;4;926;390;28;3;475;10312;4;528;499;26;4;552;12972;5;575;248;23;5;1323;35146;4;675;562;420;658;32;6;1031;26661;4;511;508;577;552;29;7;1339;24765;4;1423;465;29;8;1226;24359;4;1302;454;28;9;365;13392;4;408;521;25
31.01.18;15:45:00;1;185;5885;0;2;530;15617;4;583;395;29;3;330;10274;4;380;491;26;4;416;12927;5;434;232;23;5;840;35035;4;418;350;404;633;32;6;634;26578;4;322;335;571;547;30;7;619;24664;4;672;458;29;8;601;24266;4;651;471;29;9;297;13363;4;341;519;26
31.01.18;15:40:00;1;190;5869;0;2;440;15573;4;490;376;31;3;265;10246;4;310;475;27;4;309;12892;5;321;230;23;5;690;34966;4;338;288;398;625;33;6;517;26526;4;268;279;558;535;30;7;498;24611;4;542;445;30;8;483;24215;4;530;442;30;9;239;13338;4;281;487;27
31.01.18;15:35:00;1;255;5853;0;2;2464;15536;4;2592;387;33;3;1396;10224;4;1479;427;28;4;810;12866;5;844;231;24;5;3448;34894;4;1829;1525;425;685;33;6;2597;26475;4;1346;1308;600;573;30;7;3210;24569;4;3359;476;30;8;3048;24174;4;3194;467;30;9;1446;13318;4;1531;481;29
31.01.18;15:30:00;1;534;5831;0;2;2409;15331;4;2539;392;34;3;1393;10107;4;1472;428;28;4;824;12798;5;858;232;24;5;3504;34602;4;1876;1544;431;691;33;6;2678;26254;4;1357;1332;597;579;30;7;3420;24312;4;3583;474;31;8;3322;23932;4;3481;477;31;9;1695;13204;4;1796;509;30
31.01.18;15:25:00;1;286;5785;0;2;2616;15129;4;2748;382;34;3;1497;9991;4;1582;428;29;4;823;12729;5;857;221;24;5;3841;34312;4;2068;1698;432;691;33;6;2930;26033;4;1513;1479;600;576;30;7;3785;24021;4;3966;467;31;8;3710;23649;4;3885;472;31;9;1978;13059;4;2091;513;31
31.01.18;15:20:00;1;367;5760;0;2;2473;14911;4;2602;385;35;3;1413;9866;4;1492;426;29;4;794;12661;5;827;220;24;5;3689;33994;4;1992;1627;428;688;34;6;2816;25791;4;1452;1418;596;577;30;7;3601;23706;4;3777;469;31;8;3534;23340;4;3700;469;31;9;1934;12894;4;2048;524;31
31.01.18;15:15:00;1;366;5729;0;2;2709;14703;4;2854;402;35;3;1493;9747;4;1572;416;30;4;841;12594;5;877;218;25;5;3965;33683;4;2137;1749;430;684;34;6;3000;25554;4;1541;1511;593;574;30;7;3778;23404;4;3959;469;32;8;3742;23044;4;3915;471;31;9;2071;12733;4;2188;515;32
31.01.18;15:10:00;1;682;5699;0;2;2799;14478;4;2950;400;36;3;1568;9622;4;1652;447;30;4;889;12524;5;926;218;25;5;4164;33346;4;2254;1849;430;690;34;6;3128;25299;4;1612;1566;594;565;31;7;3797;23090;4;3978;465;32;8;2965;22733;4;3105;373;25;9;2061;12562;4;2183;511;32
31.01.18;15:05:00;1;408;5638;0;2;2904;14243;4;3060;400;36;3;1715;9492;4;1812;467;31;4;918;12450;5;956;218;26;5;4390;32999;4;2373;1947;428;681;34;6;3333;25035;4;1709;1673;594;569;31;7;4018;22770;4;4216;468;32;8;3940;22426;4;4131;460;32;9;2163;12387;4;2290;525;32
31.01.18;15:00:00;1;411;5604;0;2;2923;14001;4;3082;399;36;3;1814;9349;4;1917;491;31;4;952;12373;5;992;227;26;5;4542;32632;4;2476;2014;428;685;34;6;3424;24756;4;1769;1717;593;566;31;7;4073;22435;4;4277;464;32;8;4010;22100;4;4204;467;32;9;2206;12208;4;2335;521;32
31.01.18;14:55:00;1;529;5570;0;2;2966;13757;4;3129;398;36;3;1901;9197;4;2010;504;31;4;995;12294;5;1036;228;26;5;4693;32253;4;2557;2086;426;682;34;6;3571;24470;4;1845;1792;591;565;31;7;4194;22102;4;4403;470;32;8;4115;21769;4;4313;460;32;9;2255;12028;4;2389;515;33
31.01.18;14:50:00;1;644;5517;0;2;3067;13510;4;3230;397;37;3;1992;9039;4;2108;506;32;4;1081;12211;5;1126;241;27;5;4906;31860;4;2685;2180;424;684;34;6;3727;24172;4;1934;1873;588;562;31;7;4280;21746;4;4493;461;32;8;2509;21420;4;2631;277;19;9;2314;11838;4;2448;516;33
31.01.18;14:45:00;1;411;5479;0;2;3116;13254;4;3283;400;37;3;2031;8873;4;2147;512;32;4;1212;12121;5;1262;235;27;5;5080;31449;4;2768;2258;423;678;35;6;3859;23860;4;1991;1922;591;564;31;7;4350;21396;4;4569;463;32;8;2138;20890;0;2240;231;16;9;2357;11646;4;2496;513;33
31.01.18;14:40:00;1;682;5445;0;2;3137;12995;4;3302;398;37;3;2040;8704;4;2159;517;32;4;1306;12020;5;1361;231;28;5;5209;31025;4;2830;2321;422;678;35;6;3956;23537;4;2037;1976;591;561;31;7;4389;21027;4;4608;459;33;8;4303;20716;4;4509;454;32;9;1889;11447;4;2002;410;26
31.01.18;14:35:00;1;1463;5380;0;2;3166;12734;4;3334;399;37;3;2060;8534;4;2180;514;31;4;1384;11912;5;1442;224;28;5;5336;30591;4;2901;2365;423;680;35;6;4054;23208;4;2091;2028;589;561;31;7;4425;20662;4;4644;461;33;8;4345;20359;4;4555;456;32;9;2392;11249;4;2537;509;33
31.01.18;14:30:00;1;667;5252;0;2;3212;12470;4;3385;400;36;3;2099;8363;4;2219;510;31;4;1504;11797;5;1566;232;28;5;5500;30146;4;2996;2451;422;678;35;6;4180;22870;4;2154;2078;587;560;31;7;4513;20293;4;4736;459;33;8;4434;20003;4;4652;458;32;9;2448;11053;4;2591;510;33
31.01.18;14:25:00;1;289;5196;0;2;3288;12203;4;3458;401;36;3;2137;8188;4;2259;511;31;4;1646;11672;5;1714;237;29;5;5677;29687;4;3096;2530;423;677;35;6;4322;22521;4;2236;2150;586;563;31;7;4586;19918;4;4802;455;33;8;4501;19628;4;4714;457;32;9;2479;10846;4;2622;502;33